Skip Page Navigation
NASA JPL Caltech
NASA Logo - Jet Propulsion Laboratory + View the NASA Portal
+ Center for Near-Earth Object Studies
JPL Home Earth Solar System Stars & Galaxies Technology
JPL Solar System Dynamics
BODIES ORBITS EPHEMERIDES TOOLS PHYSICAL DATA DISCOVERY FAQ SITE MAP
JPL Small-Body Database Browser
Search: [ help ]  
(2021 FO1)
Classification: Apollo [NEO]          SPK-ID: 54132233
Ephemeris | Orbit Diagram | Orbital Elements | Mission Design | Physical Parameters | Close-Approach Data ]

[ hide orbit diagram ]

For accurate long-term ephemerides, please instead use our Horizons system.This orbit viewer was implemented using two-body methods, and hence should not be used for determining accurate long-term trajectories (over several years or decades) or planetary encounter circumstances.


Orbital Elements at Epoch 2459200.5 (2020-Dec-17.0) TDB
Reference: JPL 3 (heliocentric ecliptic J2000)
 Element Value Uncertainty (1-sigma)   Units 
e .318187857485703 0.00026234  
a 1.361821483763322 0.00045088 au
q .9285064235666697 4.9975e-05 au
i .6287708687282695 0.00040975 deg
node 4.989515150743085 0.00059663 deg
peri 222.0935349488486 0.0027217 deg
M 277.4341492921411 0.043043 deg
tp 2459333.630222516549
(2021-Apr-29.13022252)
0.0033537 TDB
period 580.4685556445901
1.59
0.28828
0.0007893
d
yr
n .6201886329574434 0.000308 deg/d
Q 1.795136543959975 0.00059434 au
  Orbit Determination Parameters
   # obs. used (total)      29  
   data-arc span      1 day  
   first obs. used      2021-03-20  
   last obs. used      2021-03-21  
   planetary ephem.      DE441  
   SB-pert. ephem.      SB441-N16  
   condition code      7  
   norm. resid. RMS      .53462  
   source      ORB  
   producer      Otto Matic  
   solution date      2021-Apr-15 23:26:51  

Additional Information
 Earth MOID = .000414484 au 
 Jupiter MOID = 3.18951 au 
 T_jup = 4.791 
[ show covariance matrix ]

Ephemeris | Orbit Diagram | Orbital Elements | Mission Design | Physical Parameters | Close-Approach Data ]

Physical Parameter Table
Parameter Symbol Value Units Sigma Reference Notes
absolute magnitude H 29.48   .32715 E2021G03 autocmod 2.9c

[ show close-approach data ]
Ephemeris | Orbit Diagram | Orbital Elements | Mission Design | Physical Parameters | Close-Approach Data ]
ABOUT SSD CREDITS/AWARDS PRIVACY/COPYRIGHT GLOSSARY LINKS
FirstGov 2021-May-08 17:29 UT
(server date/time)  
NASA Home Page
Site Manager:   Ryan S. Park
Webmaster  Alan B. Chamberlin